timestamp,wind_dir_avg,wind_spd_avg,wind_spd_max_dir,wind_spd_gust,battery_voltage,lat,long
2020-12-07 00:04:01+00:00,230.0,8.05,228.0,9.98,12.33,47.59359,-54.27349
2020-12-07 00:14:01+00:00,232.0,4.19,233.0,4.96,12.33,47.59359,-54.27349
2020-12-07 00:24:01+00:00,232.0,2.93,230.0,3.56,12.33,47.59359,-54.27349
2020-12-07 00:34:01+00:00,235.0,3.7,214.0,5.31,12.33,47.59359,-54.27349
2020-12-07 00:44:01+00:00,224.0,4.82,218.0,5.84,12.33,47.59359,-54.27349
2020-12-07 00:54:01+00:00,215.0,5.31,212.0,6.22,12.33,47.59359,-54.27349
2020-12-07 01:04:01+00:00,205.0,5.24,206.0,5.85,12.33,47.59359,-54.27349
2020-12-07 01:14:01+00:00,210.0,4.97,208.0,5.62,12.33,47.59359,-54.27349
2020-12-07 01:24:01+00:00,214.0,5.18,214.0,5.46,12.33,47.59359,-54.27349
2020-12-07 01:34:01+00:00,221.0,3.34,219.0,3.75,12.33,47.59359,-54.27349
2020-12-07 01:44:01+00:00,227.0,4.28,238.0,4.77,12.33,47.59359,-54.27349
2020-12-07 01:54:01+00:00,225.0,3.52,234.0,4.17,12.33,47.59359,-54.27349
2020-12-07 02:04:01+00:00,229.0,3.25,227.0,3.6,12.33,47.59359,-54.27349
2020-12-07 02:14:01+00:00,216.0,3.22,216.0,3.86,12.33,47.59359,-54.27349
2020-12-07 02:24:01+00:00,229.0,3.0,228.0,3.33,12.33,47.59359,-54.27349
2020-12-07 02:34:01+00:00,220.0,2.89,228.0,3.54,12.33,47.59359,-54.27349
2020-12-07 02:44:01+00:00,232.0,2.94,241.0,3.59,12.33,47.59359,-54.27349
2020-12-07 02:54:01+00:00,232.0,1.95,242.0,2.47,12.33,47.59359,-54.27349
2020-12-07 03:04:01+00:00,243.0,3.06,242.0,3.25,12.33,47.59359,-54.27349
2020-12-07 03:14:01+00:00,247.0,3.0,248.0,3.08,12.33,47.59359,-54.27349
2020-12-07 03:24:01+00:00,247.0,2.35,247.0,2.55,12.33,47.59359,-54.27349
2020-12-07 03:34:01+00:00,238.0,1.9,241.0,2.21,12.33,47.59359,-54.27349
2020-12-07 03:44:01+00:00,189.0,1.48,196.0,1.74,12.33,47.59359,-54.27349
2020-12-07 03:54:01+00:00,171.0,1.82,173.0,2.02,12.33,47.59359,-54.27349
2020-12-07 04:04:01+00:00,178.0,2.25,178.0,2.36,12.33,47.59359,-54.27349
2020-12-07 04:14:01+00:00,187.0,1.92,189.0,2.06,12.33,47.59359,-54.27349
2020-12-07 04:24:01+00:00,188.0,2.86,190.0,3.03,12.33,47.59359,-54.27349
2020-12-07 04:34:01+00:00,204.0,2.71,205.0,2.98,12.33,47.59359,-54.27349
2020-12-07 04:44:01+00:00,188.0,3.29,186.0,3.69,12.33,47.59359,-54.27349
2020-12-07 04:54:01+00:00,184.0,3.49,184.0,3.69,12.33,47.59359,-54.27349
2020-12-07 05:04:01+00:00,174.0,2.6,176.0,3.21,12.33,47.59359,-54.27349
2020-12-07 05:14:01+00:00,190.0,2.78,191.0,3.12,12.33,47.59359,-54.27349
2020-12-07 05:24:01+00:00,202.0,3.55,193.0,4.46,12.33,47.59359,-54.27349
2020-12-07 05:34:01+00:00,178.0,2.88,182.0,3.17,12.33,47.59359,-54.27349
2020-12-07 05:44:01+00:00,189.0,3.0,189.0,3.35,12.33,47.59359,-54.27349
2020-12-07 05:54:01+00:00,186.0,3.42,188.0,4.07,12.33,47.59359,-54.27349
2020-12-07 06:04:01+00:00,190.0,3.32,192.0,3.98,12.33,47.59359,-54.27349
2020-12-07 06:14:01+00:00,211.0,3.27,211.0,3.97,12.33,47.59359,-54.27349
2020-12-07 06:24:01+00:00,221.0,2.54,222.0,2.83,12.33,47.59359,-54.27349
2020-12-07 06:34:01+00:00,260.0,1.64,262.0,1.85,12.33,47.59359,-54.27349
2020-12-07 06:44:01+00:00,271.0,0.4,266.0,0.49,12.33,47.59359,-54.27349
2020-12-07 06:54:01+00:00,283.0,1.15,289.0,1.41,12.33,47.59359,-54.27349
2020-12-07 07:04:01+00:00,270.0,1.06,276.0,1.23,12.33,47.59359,-54.27349
2020-12-07 07:14:01+00:00,230.0,1.15,227.0,1.35,12.33,47.59359,-54.27349
2020-12-07 07:24:01+00:00,242.0,2.32,246.0,2.62,12.33,47.59359,-54.27349
2020-12-07 07:34:01+00:00,237.0,3.0,244.0,3.63,12.33,47.59359,-54.27349
2020-12-07 07:44:01+00:00,246.0,2.6,248.0,2.85,12.33,47.59359,-54.27349
2020-12-07 07:54:01+00:00,248.0,3.22,250.0,3.97,12.33,47.59359,-54.27349
2020-12-07 08:04:01+00:00,240.0,3.31,235.0,3.95,12.33,47.59359,-54.27349
2020-12-07 08:14:01+00:00,240.0,5.19,246.0,5.75,12.33,47.59359,-54.27349
2020-12-07 08:24:01+00:00,227.0,4.55,224.0,5.11,12.33,47.59359,-54.27349
2020-12-07 08:34:01+00:00,151.0,2.69,157.0,2.98,12.33,47.59359,-54.27349
2020-12-07 08:44:01+00:00,164.0,1.22,163.0,1.43,12.33,47.59359,-54.27349
2020-12-07 08:54:01+00:00,140.0,1.25,142.0,1.36,12.33,47.59359,-54.27349
2020-12-07 09:04:01+00:00,127.0,1.41,126.0,1.59,12.33,47.59359,-54.27349
2020-12-07 09:14:01+00:00,216.0,0.83,236.0,1.19,12.33,47.59359,-54.27349
2020-12-07 09:24:01+00:00,212.0,1.53,228.0,2.46,12.33,47.59359,-54.27349
2020-12-07 09:34:01+00:00,276.0,1.8,273.0,2.37,12.33,47.59359,-54.27349
2020-12-07 09:44:01+00:00,197.0,0.95,192.0,1.09,12.33,47.59359,-54.27349
2020-12-07 09:54:01+00:00,210.0,2.58,210.0,3.27,12.33,47.59359,-54.27349
2020-12-07 10:04:01+00:00,160.0,1.76,160.0,2.14,12.33,47.59359,-54.27349
2020-12-07 10:14:01+00:00,140.0,1.39,148.0,1.67,12.33,47.59359,-54.27349
2020-12-07 10:24:01+00:00,0.0,0.58,0.0,0.81,12.33,47.59359,-54.27349
2020-12-07 10:34:01+00:00,87.0,0.39,91.0,0.48,12.33,47.59359,-54.27349
2020-12-07 10:44:01+00:00,123.0,0.47,126.0,0.61,12.33,47.59359,-54.27349
2020-12-07 10:54:01+00:00,15.0,0.33,3.0,0.43,12.33,47.59359,-54.27349
2020-12-07 11:04:01+00:00,338.0,0.97,334.0,1.06,12.33,47.59359,-54.27349
2020-12-07 11:14:01+00:00,2.0,0.74,6.0,1.0,12.33,47.59359,-54.27349
2020-12-07 11:24:01+00:00,275.0,1.87,274.0,1.98,12.33,47.59359,-54.27349
2020-12-07 11:34:01+00:00,6.0,0.64,7.0,0.78,12.33,47.59359,-54.27349
2020-12-07 11:44:01+00:00,341.0,0.6,339.0,0.9,12.33,47.59359,-54.27349
2020-12-07 11:54:01+00:00,310.0,0.44,318.0,0.63,12.33,47.59359,-54.27349
2020-12-07 12:04:01+00:00,311.0,0.13,358.0,0.29,12.33,47.59359,-54.27349
2020-12-07 12:14:01+00:00,189.0,0.67,190.0,0.74,12.33,47.59359,-54.27349
2020-12-07 12:24:01+00:00,161.0,0.8,161.0,0.92,12.33,47.59359,-54.27349
2020-12-07 12:34:01+00:00,163.0,0.83,164.0,0.94,12.33,47.59359,-54.27349
2020-12-07 12:44:01+00:00,190.0,0.74,204.0,0.84,12.33,47.59359,-54.27349
2020-12-07 12:54:01+00:00,167.0,1.32,166.0,1.46,12.33,47.59359,-54.27349
2020-12-07 13:04:01+00:00,195.0,3.55,189.0,4.06,12.33,47.59359,-54.27349
2020-12-07 13:14:01+00:00,235.0,4.24,237.0,5.15,12.41,47.59359,-54.27349
2020-12-07 13:24:01+00:00,236.0,5.02,223.0,6.2,12.41,47.59359,-54.27349
2020-12-07 13:34:01+00:00,238.0,5.11,238.0,5.88,12.41,47.59359,-54.27349
2020-12-07 13:44:01+00:00,240.0,4.85,240.0,5.59,12.41,47.59359,-54.27349
2020-12-07 13:54:01+00:00,235.0,5.16,222.0,6.08,12.41,47.59359,-54.27349
2020-12-07 14:04:01+00:00,235.0,4.82,222.0,6.22,12.41,47.59359,-54.27349
2020-12-07 14:14:01+00:00,219.0,4.56,214.0,5.72,12.89,47.59359,-54.27349
2020-12-07 14:24:01+00:00,213.0,4.83,213.0,6.07,12.89,47.59359,-54.27349
2020-12-07 14:34:01+00:00,215.0,5.7,213.0,6.54,12.89,47.59359,-54.27349
2020-12-07 14:44:01+00:00,213.0,5.45,212.0,6.41,12.89,47.59359,-54.27349
2020-12-07 14:54:01+00:00,204.0,6.1,203.0,6.85,12.89,47.59359,-54.27349
2020-12-07 15:04:01+00:00,206.0,5.16,197.0,6.32,12.89,47.59359,-54.27349
2020-12-07 15:14:01+00:00,195.0,6.28,198.0,6.85,13.84,47.59359,-54.27349
2020-12-07 15:24:01+00:00,193.0,6.56,196.0,7.09,13.84,47.59359,-54.27349
2020-12-07 15:34:01+00:00,196.0,6.78,197.0,7.14,13.84,47.59359,-54.27349
2020-12-07 15:44:01+00:00,194.0,6.37,194.0,6.97,13.84,47.59359,-54.27349
2020-12-07 15:54:01+00:00,196.0,5.46,198.0,6.03,13.84,47.59359,-54.27349
2020-12-07 16:04:01+00:00,194.0,4.95,192.0,5.62,13.84,47.59359,-54.27349
2020-12-07 16:14:01+00:00,202.0,5.92,201.0,6.81,13.68,47.59359,-54.27349
2020-12-07 16:24:01+00:00,204.0,6.26,199.0,7.35,13.68,47.59359,-54.27349
2020-12-07 16:34:01+00:00,203.0,5.66,198.0,7.44,13.68,47.59359,-54.27349
2020-12-07 16:44:01+00:00,204.0,6.42,197.0,8.84,13.68,47.59359,-54.27349
2020-12-07 16:54:01+00:00,202.0,5.77,203.0,6.52,13.68,47.59359,-54.27349
2020-12-07 17:04:01+00:00,196.0,6.21,196.0,6.8,13.68,47.59359,-54.27349
2020-12-07 17:14:01+00:00,194.0,5.77,193.0,6.22,13.6,47.59359,-54.27349
2020-12-07 17:24:01+00:00,199.0,5.89,197.0,6.76,13.6,47.59359,-54.27349
2020-12-07 17:34:01+00:00,196.0,4.98,194.0,5.53,13.6,47.59359,-54.27349
2020-12-07 17:44:01+00:00,195.0,6.11,197.0,6.37,13.6,47.59359,-54.27349
2020-12-07 17:54:01+00:00,210.0,5.33,206.0,5.92,13.6,47.59359,-54.27349
2020-12-07 18:04:01+00:00,214.0,6.06,217.0,6.79,13.6,47.59359,-54.27349
2020-12-07 18:14:01+00:00,216.0,6.24,214.0,7.48,14.08,47.59359,-54.27349
2020-12-07 18:24:01+00:00,215.0,7.18,215.0,7.89,14.08,47.59359,-54.27349
2020-12-07 18:34:01+00:00,213.0,7.05,213.0,8.07,14.08,47.59359,-54.27349
2020-12-07 18:44:01+00:00,223.0,5.89,224.0,6.59,14.08,47.59359,-54.27349
2020-12-07 18:54:01+00:00,231.0,5.1,236.0,5.95,14.08,47.59359,-54.27349
2020-12-07 19:04:01+00:00,223.0,4.54,220.0,5.58,14.08,47.59359,-54.27349
2020-12-07 19:14:01+00:00,215.0,5.46,215.0,6.4,13.29,47.59359,-54.27349
2020-12-07 19:24:01+00:00,213.0,5.46,216.0,5.86,13.29,47.59359,-54.27349
2020-12-07 19:34:01+00:00,216.0,6.85,218.0,7.69,13.29,47.59359,-54.27349
2020-12-07 19:44:01+00:00,222.0,7.04,225.0,8.44,13.29,47.59359,-54.27349
2020-12-07 19:54:01+00:00,213.0,6.45,209.0,7.4,13.29,47.59359,-54.27349
2020-12-07 20:04:01+00:00,213.0,7.24,215.0,7.89,13.29,47.59359,-54.27349
2020-12-07 20:14:01+00:00,216.0,5.42,219.0,5.93,12.73,47.59359,-54.27349
2020-12-07 20:24:01+00:00,218.0,5.0,223.0,5.63,12.73,47.59359,-54.27349
2020-12-07 20:34:01+00:00,217.0,4.6,216.0,5.34,12.73,47.59359,-54.27349
2020-12-07 20:44:01+00:00,212.0,6.65,213.0,7.11,12.73,47.59359,-54.27349
2020-12-07 20:54:01+00:00,206.0,7.56,212.0,8.36,12.73,47.59359,-54.27349
2020-12-07 21:04:01+00:00,214.0,7.54,216.0,8.64,12.73,47.59359,-54.27349
2020-12-07 21:14:01+00:00,218.0,8.38,218.0,9.82,12.65,47.59359,-54.27349
2020-12-07 21:24:01+00:00,218.0,8.33,220.0,9.86,12.65,47.59359,-54.27349
2020-12-07 21:34:01+00:00,222.0,7.3,221.0,8.73,12.65,47.59359,-54.27349
2020-12-07 21:44:01+00:00,215.0,8.74,218.0,9.85,12.65,47.59359,-54.27349
2020-12-07 21:54:01+00:00,215.0,8.94,215.0,10.37,12.65,47.59359,-54.27349
2020-12-07 22:04:01+00:00,217.0,8.24,216.0,9.07,12.65,47.59359,-54.27349
2020-12-07 22:14:01+00:00,215.0,7.56,215.0,8.54,12.65,47.59359,-54.27349
2020-12-07 22:24:01+00:00,217.0,7.84,222.0,9.12,12.65,47.59359,-54.27349
2020-12-07 22:34:01+00:00,207.0,7.57,207.0,8.79,12.65,47.59359,-54.27349
2020-12-07 22:44:01+00:00,207.0,8.11,217.0,9.35,12.65,47.59359,-54.27349
2020-12-07 22:54:01+00:00,209.0,8.9,212.0,9.87,12.65,47.59359,-54.27349
2020-12-07 23:04:01+00:00,236.0,9.92,239.0,10.86,12.65,47.59359,-54.27349
2020-12-07 23:14:01+00:00,240.0,9.32,240.0,10.27,12.57,47.59359,-54.27349
2020-12-07 23:24:01+00:00,232.0,7.14,236.0,8.15,12.57,47.59359,-54.27349
2020-12-07 23:34:01+00:00,227.0,7.18,219.0,8.37,12.57,47.59359,-54.27349
2020-12-07 23:44:01+00:00,230.0,7.78,227.0,9.35,12.57,47.59359,-54.27349
2020-12-07 23:54:01+00:00,228.0,7.21,230.0,8.31,12.57,47.59359,-54.27349
